Regional Weather Roundup
Issued by NWS

Home | Current Version | Previous Version | Graphics & Text | Print | Product List | Glossary On
Versions: 1 2 3 4 5 6 7 8 9 10 11 12 13 14 15 16 17 18 19 20 21 22 23 24 25 26 27 28 29 30 31 32 33 34 35 36 37 38 39 40 41 42 43 44 45 46 47 48 49 50
000
ASUS43 KOAX 280602
RWRNE

WEATHER ROUNDUP FOR NEBRASKA
NATIONAL WEATHER SERVICE OMAHA NE
100 AM CDT SUN AUG 28 2016

NOTES: SATELLITE DATA IS BEING USED TO AUGMENT CLOUD COVER ABOVE
       12000 FEET.
       "FAIR" INDICATES FEW OR NO CLOUDS BELOW 12,000 FEET WITH NO
       SIGNIFICANT WEATHER AND/OR OBSTRUCTIONS TO VISIBILITY.

  * THESE STATIONS DO NOT REPORT WEATHER SUCH AS RAIN...SNOW OR FOG.

NEZ001>004-019>022-054>056-280700-
NEBRASKA PANHANDLE

CITY           SKY/WX    TMP DP  RH WIND       PRES   REMARKS
SCOTTSBLUFF    CLEAR     62  55  77 E8        30.04S
6HR MIN TEMP:  62; 6HR MAX TEMP:  82;

ALLIANCE       CLEAR     61  57  87 S8        30.03S
6HR MIN TEMP:  60; 6HR MAX TEMP:  80;

CHADRON        CLEAR     73  55  53 S23G30    29.95S
6HR MIN TEMP:  72; 6HR MAX TEMP:  87;

SIDNEY         CLEAR     59  57  93 S7        30.09F
6HR MIN TEMP:  59; 6HR MAX TEMP:  81;

$$

NEZ057>060-069>072-079>082-280700-
SOUTHWEST NEBRASKA

CITY           SKY/WX    TMP DP  RH WIND       PRES   REMARKS
NORTH PLATTE   CLEAR     65  63  93 E8        30.05S
6HR MIN TEMP:  65; 6HR MAX TEMP:  82;

IMPERIAL       CLEAR     64  62  93 SE7       30.06S
6HR MIN TEMP:  64; 6HR MAX TEMP:  80;

LEXINGTON      CLOUDY    69  64  86 SE7       30.06S
MCCOOK         CLEAR     67  64  90 E6        30.04S
6HR MIN TEMP:  67; 6HR MAX TEMP:  82;

OGALLALA       CLEAR     70  62  76 SE9       30.05R
$$

NEZ005>010-023>029-035>040-094-280700-
NORTH CENTRAL NEBRASKA

CITY           SKY/WX    TMP DP  RH WIND       PRES   REMARKS
VALENTINE      CLEAR     71  62  73 S16G23    30.00R
6HR MIN TEMP:  67; 6HR MAX TEMP:  84;

AINSWORTH      CLEAR     68  65  89 S13       30.03S
BROKEN BOW     CLEAR     66  64  93 SE7       30.06S
6HR MIN TEMP:  66; 6HR MAX TEMP:  80;

O`NEILL        CLEAR     67  64  87 SE6       30.04S
ORD            CLEAR     66  61  84 S5        30.04S
6HR MIN TEMP:  66; 6HR MAX TEMP:  82;

THEDFORD       CLEAR     70  64  82 S12       30.04F
$$

NEZ041-046>049-061>064-073>077-083>087-280700-
SOUTH CENTRAL NEBRASKA

CITY           SKY/WX    TMP DP  RH WIND       PRES   REMARKS
GRAND ISLAND   CLOUDY    71  66  84 S9        30.06F
6HR MIN TEMP:  68; 6HR MAX TEMP:  81;

AURORA         CLOUDY    66  66  99 SE5       30.07R
HASTINGS       PTCLDY    71  65  81 SE8       30.07S
6HR MIN TEMP:  71; 6HR MAX TEMP:  81;

HEBRON         CLEAR     67  66  95 E3        30.05S
HOLDREGE       PTCLDY    67  64  90 SE7       30.06S
KEARNEY *      CLOUDY    70  64  83 SE7       30.05S
YORK           PTCLDY    68  66  94 CALM      30.07S
$$

NEZ011>018-030>034-042>045-280700-
NORTHEAST NEBRASKA

CITY           SKY/WX    TMP DP  RH WIND       PRES   REMARKS
NORFOLK        FAIR      67  62  84 S8        30.05S
6HR MIN TEMP:  67; 6HR MAX TEMP:  79;

ALBION         FAIR      66  62  89 CALM      30.06S
BLAIR          PTCLDY    70  67  89 SE6       30.07S
FREMONT        FAIR      69  67  94 SE6       30.06S
TEKAMAH        FAIR      63  62  97 S3        30.06R FOG
6HR MIN TEMP:  63; 6HR MAX TEMP:  79;

WAYNE          FAIR      66  65  96 S5        30.06S
$$

NEZ050>053-065>068-078-088>093-280700-
SOUTHEAST NEBRASKA

CITY           SKY/WX    TMP DP  RH WIND       PRES   REMARKS
LINCOLN        PTCLDY    68  64  87 CALM      30.07S
6HR MIN TEMP:  66; 6HR MAX TEMP:  83;

OMAHA EPPLEY   PTCLDY    72  66  81 S3        30.06S
6HR MIN TEMP:  71; 6HR MAX TEMP:  82;

BEATRICE       PTCLDY    69  66  92 E3        30.06S
FALLS CITY     CLEAR     69  67  93 CALM      30.05S
6HR MIN TEMP:  69; 6HR MAX TEMP:  83;

NEBRASKA CITY  PTCLDY    68  68 100 CALM      30.07F
PLATTSMOUTH    CLOUDY    69  68  98 SE5       30.07S
$$

NEZ044-045-051>053-067-280700-
OMAHA AREA

CITY           SKY/WX    TMP DP  RH WIND       PRES   REMARKS
OMAHA EPPLEY   PTCLDY    72  66  81 S3        30.06S
6HR MIN TEMP:  71; 6HR MAX TEMP:  82;

BLAIR          PTCLDY    70  67  89 SE6       30.07S
FREMONT        FAIR      69  67  94 SE6       30.06S
MILLARD        CLOUDY    70  67  92 CALM      30.06S
OFFUTT AFB     PTCLDY    64  64 100 E5        30.06S
PLATTSMOUTH    CLOUDY    69  68  98 SE5       30.07S
WAHOO          FAIR      65  64  96 CALM      30.06F
$$




USA.gov is the U.S. government's official web portal to all federal, state and local government web resources and services.